TimeEDT,TemperatureF,Dew PointF,Humidity,Sea Level PressureIn,VisibilityMPH,Wind Direction,Wind SpeedMPH,Gust SpeedMPH,PrecipitationIn,Events,Conditions,WindDirDegrees,DateUTC
12:53 AM,52.0,48.9,89,30.08,10.0,Calm,Calm,-,N/A,,Clear,0,2013-06-15 04:53:00
1:53 AM,50.0,46.9,89,30.06,9.0,Calm,Calm,-,N/A,,Clear,0,2013-06-15 05:53:00
2:53 AM,50.0,46.0,86,30.04,8.0,Calm,Calm,-,N/A,,Clear,0,2013-06-15 06:53:00
3:53 AM,48.0,44.1,86,30.06,5.0,Calm,Calm,-,N/A,,Clear,0,2013-06-15 07:53:00
4:53 AM,46.9,43.0,86,30.08,10.0,Calm,Calm,-,N/A,,Clear,0,2013-06-15 08:53:00
5:53 AM,46.0,42.1,86,30.10,6.0,Calm,Calm,-,N/A,,Clear,0,2013-06-15 09:53:00
6:53 AM,48.9,46.0,90,30.12,10.0,Calm,Calm,-,0.01,,Clear,0,2013-06-15 10:53:00
7:53 AM,54.0,50.0,86,30.12,10.0,Calm,Calm,-,N/A,,Clear,0,2013-06-15 11:53:00
8:53 AM,60.1,52.0,75,30.13,10.0,West,5.8,-,N/A,,Clear,270,2013-06-15 12:53:00
9:53 AM,64.9,50.0,58,30.14,10.0,WNW,4.6,-,N/A,,Clear,290,2013-06-15 13:53:00
10:53 AM,69.1,53.1,57,30.11,10.0,Calm,Calm,-,N/A,,Clear,0,2013-06-15 14:53:00
11:53 AM,72.0,53.1,51,30.10,10.0,West,8.1,-,N/A,,Clear,270,2013-06-15 15:53:00
12:53 PM,72.0,51.1,48,30.09,10.0,WNW,8.1,-,N/A,,Clear,300,2013-06-15 16:53:00
1:53 PM,73.0,51.1,46,30.07,10.0,WSW,4.6,-,N/A,,Clear,250,2013-06-15 17:53:00
2:53 PM,75.0,53.1,46,30.06,10.0,West,9.2,-,N/A,,Clear,260,2013-06-15 18:53:00
3:53 PM,75.0,51.1,43,30.04,10.0,West,4.6,-,N/A,,Clear,280,2013-06-15 19:53:00
4:53 PM,77.0,52.0,42,30.04,10.0,Variable,5.8,-,N/A,,Clear,0,2013-06-15 20:53:00
5:53 PM,73.9,52.0,46,30.03,10.0,NW,4.6,-,N/A,,Clear,310,2013-06-15 21:53:00
6:53 PM,75.0,52.0,44,30.03,10.0,NW,4.6,-,N/A,,Clear,320,2013-06-15 22:53:00
7:53 PM,71.1,57.0,61,30.01,10.0,Calm,Calm,-,N/A,,Clear,0,2013-06-15 23:53:00
8:53 PM,68.0,60.1,76,29.99,10.0,Calm,Calm,-,N/A,,Mostly Cloudy,0,2013-06-16 00:53:00
9:53 PM,66.9,57.0,70,30.00,10.0,WNW,9.2,-,0.00,,Mostly Cloudy,300,2013-06-16 01:53:00
10:53 PM,64.9,57.0,75,30.00,10.0,SSW,6.9,-,N/A,,Partly Cloudy,200,2013-06-16 02:53:00
11:53 PM,64.0,57.0,78,30.01,10.0,SSE,3.5,-,N/A,,Mostly Cloudy,160,2013-06-16 03:53:00